Weather History for Medford, WI

Change the Weather History Date:

Sunday, March 16, 2014

  Actual Average Record
Temperature  
Mean Temperature 6 °F -  
Max Temperature 17 °F 36 °F 71 °F (2012)
Min Temperature -4 °F 15 °F -10 °F (1956)
Degree Days  
Heating Degree Days 58    
Moisture  
Dew Point -3 °F    
Average Humidity 59    
Maximum Humidity 80    
Minimum Humidity 44    
Precipitation  
Precipitation 0.00 in - - ()
Sea Level Pressure  
Sea Level Pressure 30.32 in    
Wind  
Wind Speed 6 mph (ESE)    
Max Wind Speed 10 mph    
Max Gust Speed -    
Visibility 10 miles    
Events      
Averages and records for this station are not official NWS values.
T = Trace of Precipitation, MM = Missing Value Source: NWS Daily Summary

Daily Weather History Graph

Daily Weather History Graph

Search for Another Location

Airport:

Trip Planner

Search our weather history database for the weather conditions in past years. The results will help you decide how hot, cold, wet, or windy it might be!

Date:

Astronomy

Mar. 16, 2014 Rise Set
Actual Time 7:11 AM CDT 7:08 PM CDT
Civil Twilight 6:42 AM CDT 7:37 PM CDT
Nautical Twilight 6:08 AM CDT 8:12 PM CDT
Astronomical Twilight 5:33 AM CDT 8:47 PM CDT
Moon 7:28 PM CDT (3/16) 6:54 AM CDT (3/16)
Length of Visible Light 12h 55m
Length of Day
11h 56m
Full, 100% of the Moon is Illuminated
Mar 16
Full
Mar 16
Full
Mar 23
Last Quarter
Mar 30
New
Apr 7
First Quarter

Hourly Weather History & Observations

Time (CDT) Temp. Windchill Dew Point Humidity Pressure Visibility Wind Dir Wind Speed Gust Speed Precip Events Conditions
12:15 AM 8.4 °F -3.9 °F -3.5 °F 59% 30.37 in 10.0 mi NNE 8.1 mph - N/A   Clear
12:35 AM 8.1 °F -4.3 °F -3.8 °F 58% 30.37 in 10.0 mi NNE 8.1 mph - N/A   Clear
1:15 AM 6.6 °F -7.1 °F -4.0 °F 62% 30.38 in 10.0 mi NE 9.2 mph - N/A   Clear
1:35 AM 6.6 °F -6.1 °F -4.2 °F 61% 30.39 in 10.0 mi NE 8.1 mph - N/A   Clear
1:55 AM 5.9 °F -5.8 °F -4.2 °F 63% 30.40 in 10.0 mi NE 6.9 mph - N/A   Clear
2:15 AM 5.7 °F -6.1 °F -4.4 °F 63% 30.41 in 10.0 mi NE 6.9 mph - N/A   Clear
2:35 AM 3.7 °F -8.4 °F -5.1 °F 67% 30.41 in 10.0 mi ENE 6.9 mph - N/A   Clear
2:55 AM 3.0 °F -8.0 °F -5.3 °F 68% 30.42 in 10.0 mi East 5.8 mph - N/A   Clear
3:15 AM 1.6 °F -9.7 °F -5.6 °F 72% 30.42 in 10.0 mi NE 5.8 mph - N/A   Clear
3:35 AM 2.8 °F -8.2 °F -5.4 °F 68% 30.42 in 10.0 mi ENE 5.8 mph - N/A   Clear
3:55 AM 1.8 °F -7.8 °F -5.8 °F 71% 30.42 in 10.0 mi ENE 4.6 mph - N/A   Clear
4:15 AM -0.6 °F -10.6 °F -6.9 °F 75% 30.42 in 10.0 mi ENE 4.6 mph - N/A   Clear
4:35 AM 0.9 °F -10.5 °F -6.2 °F 72% 30.41 in 10.0 mi NE 5.8 mph - N/A   Clear
4:55 AM -0.6 °F -10.6 °F -7.1 °F 74% 30.41 in 10.0 mi ENE 4.6 mph - N/A   Clear
5:15 AM -1.7 °F -13.5 °F -8.0 °F 75% 30.41 in 10.0 mi ENE 5.8 mph - N/A   Clear
5:35 AM -1.8 °F -12.0 °F -7.8 °F 76% 30.41 in 10.0 mi ENE 4.6 mph - N/A   Clear
5:55 AM -1.1 °F -11.2 °F -7.6 °F 74% 30.41 in 10.0 mi ENE 4.6 mph - N/A   Clear
6:15 AM -2.6 °F -12.9 °F -8.5 °F 76% 30.41 in 10.0 mi ENE 4.6 mph - N/A   Clear
6:35 AM -2.9 °F -13.3 °F -8.5 °F 77% 30.41 in 10.0 mi ENE 4.6 mph - N/A   Clear
6:55 AM -4.5 °F -18.4 °F -9.8 °F 78% 30.41 in 10.0 mi East 6.9 mph - N/A   Clear
7:15 AM -2.2 °F -14.2 °F -7.6 °F 78% 30.41 in 10.0 mi East 5.8 mph - N/A   Clear
7:35 AM -3.3 °F -15.4 °F -8.0 °F 80% 30.41 in 10.0 mi East 5.8 mph - N/A   Clear
7:55 AM -0.9 °F -12.7 °F -6.7 °F 77% 30.41 in 10.0 mi East 5.8 mph - N/A   Clear
8:15 AM -0.8 °F -13.9 °F -7.4 °F 73% 30.41 in 10.0 mi East 6.9 mph - N/A   Clear
8:35 AM 1.2 °F -8.5 °F -6.0 °F 72% 30.43 in 10.0 mi East 4.6 mph - N/A   Clear
8:55 AM 3.2 °F -7.8 °F -5.1 °F 68% 30.42 in 10.0 mi East 5.8 mph - N/A   Clear
9:15 AM 4.5 °F -6.3 °F -4.9 °F 65% 30.41 in 10.0 mi East 5.8 mph - N/A   Clear
9:35 AM 5.5 °F -3.4 °F -4.2 °F 64% 30.42 in 10.0 mi East 4.6 mph - N/A   Clear
9:55 AM 6.4 °F -3.9 °F -4.0 °F 62% 30.42 in 10.0 mi East 5.8 mph - N/A   Clear
10:15 AM 6.8 °F -2.0 °F -4.0 °F 61% 30.42 in 10.0 mi ENE 4.6 mph - N/A   Clear
10:35 AM 8.2 °F -0.3 °F -3.6 °F 58% 30.42 in 10.0 mi ENE 4.6 mph - N/A   Clear
10:55 AM 7.9 °F - -3.5 °F 60% 30.41 in 10.0 mi Calm Calm - N/A   Clear
11:15 AM 9.0 °F 0.6 °F -3.5 °F 57% 30.41 in 10.0 mi ENE 4.6 mph - N/A   Clear
11:35 AM 10.2 °F 3.8 °F -2.4 °F 57% 30.41 in 10.0 mi SSE 3.5 mph - N/A   Clear
11:55 AM 11.1 °F - -3.1 °F 53% 30.40 in 10.0 mi Calm Calm - N/A   Clear
12:15 PM 11.3 °F 1.9 °F -3.1 °F 52% 30.39 in 10.0 mi South 5.8 mph - N/A   Clear
12:35 PM 11.3 °F 1.9 °F -2.0 °F 55% 30.39 in 10.0 mi South 5.8 mph - N/A   Clear
12:55 PM 12.0 °F 4.1 °F -3.8 °F 49% 30.39 in 10.0 mi South 4.6 mph - N/A   Clear
1:15 PM 12.9 °F 6.9 °F -2.0 °F 51% 30.37 in 10.0 mi South 3.5 mph - N/A   Clear
1:55 PM 14.0 °F 5.1 °F -2.2 °F 49% 30.35 in 10.0 mi South 5.8 mph - N/A   Clear
2:15 PM 14.0 °F 3.9 °F -2.2 °F 49% 30.33 in 10.0 mi South 6.9 mph - N/A   Clear
2:35 PM 14.4 °F 3.3 °F -2.2 °F 48% 30.32 in 10.0 mi South 8.1 mph - N/A   Clear
2:55 PM 14.9 °F 7.5 °F -2.2 °F 47% 30.31 in 10.0 mi South 4.6 mph - N/A   Clear
3:15 PM 15.4 °F 5.6 °F -1.7 °F 47% 30.30 in 10.0 mi South 6.9 mph - N/A   Clear
3:35 PM 15.8 °F 6.1 °F -1.8 °F 46% 30.29 in 10.0 mi South 6.9 mph - N/A   Clear
3:55 PM 16.5 °F 6.9 °F -0.9 °F 46% 30.27 in 10.0 mi South 6.9 mph - N/A   Clear
4:15 PM 16.7 °F 9.6 °F -1.7 °F 44% 30.27 in 10.0 mi South 4.6 mph - N/A   Clear
4:35 PM 16.9 °F 8.5 °F -1.3 °F 45% 30.27 in 10.0 mi South 5.8 mph - N/A   Clear
4:55 PM 17.1 °F 7.6 °F -0.6 °F 46% 30.26 in 10.0 mi South 6.9 mph - N/A   Clear
5:15 PM 17.1 °F 6.6 °F -1.3 °F 45% 30.24 in 10.0 mi South 8.1 mph - N/A   Clear
5:35 PM 17.1 °F 8.7 °F -1.1 °F 45% 30.23 in 10.0 mi South 5.8 mph - N/A   Clear
5:55 PM 16.3 °F 7.8 °F 0.1 °F 49% 30.22 in 10.0 mi South 5.8 mph - N/A   Clear
6:15 PM 15.6 °F 8.3 °F 0.3 °F 51% 30.22 in 10.0 mi South 4.6 mph - N/A   Clear
6:35 PM 14.9 °F 9.2 °F -0.6 °F 50% 30.21 in 10.0 mi South 3.5 mph - N/A   Clear
6:55 PM 14.4 °F 8.6 °F -0.4 °F 52% 30.20 in 10.0 mi South 3.5 mph - N/A   Clear
7:15 PM 13.8 °F - -0.4 °F 53% 30.19 in 10.0 mi Calm Calm - N/A   Clear
7:35 PM 14.9 °F - -0.4 °F 51% 30.19 in 10.0 mi Calm Calm - N/A   Clear
7:55 PM 13.8 °F - -0.4 °F 53% 30.18 in 10.0 mi Calm Calm - N/A   Clear
8:15 PM 13.1 °F - -0.6 °F 54% 30.17 in 10.0 mi Calm Calm - N/A   Clear
8:35 PM 13.1 °F 5.4 °F -1.3 °F 53% 30.16 in 10.0 mi SE 4.6 mph - N/A   Clear
8:55 PM 13.8 °F 8.0 °F -1.5 °F 51% 30.15 in 10.0 mi SSE 3.5 mph - N/A   Clear
9:15 PM 13.8 °F 4.9 °F -1.8 °F 50% 30.14 in 10.0 mi SSE 5.8 mph - N/A   Clear
9:35 PM 13.5 °F 3.3 °F -1.7 °F 51% 30.13 in 10.0 mi SE 6.9 mph - N/A   Clear
9:55 PM 13.5 °F 4.4 °F -1.8 °F 51% 30.13 in 10.0 mi SE 5.8 mph - N/A   Clear
10:15 PM 13.6 °F 4.6 °F -1.8 °F 50% 30.11 in 10.0 mi SE 5.8 mph - N/A   Clear
10:35 PM 13.8 °F 2.7 °F -1.3 °F 51% 30.10 in 10.0 mi SSE 8.1 mph - N/A   Clear
10:55 PM 14.0 °F 2.0 °F -0.8 °F 52% 30.08 in 10.0 mi SSE 9.2 mph - N/A   Clear
11:15 PM 13.8 °F 1.8 °F -0.0 °F 54% 30.07 in 10.0 mi SSE 9.2 mph - N/A   Clear
11:35 PM 13.3 °F 1.1 °F 0.5 °F 57% 30.06 in 10.0 mi SSE 9.2 mph - N/A   Scattered Clouds
11:55 PM 13.5 °F 0.5 °F 1.4 °F 59% 30.05 in 10.0 mi SSE 10.4 mph - N/A   Mostly Cloudy